Regional Weather Roundup
Issued by NWS

Home | Current Version | Previous Version | Graphics & Text | Print | Product List | Glossary On
Versions: 1 2 3 4 5 6 7 8 9 10 11 12 13 14 15 16 17 18 19 20 21 22 23 24 25 26 27 28 29 30 31 32 33 34 35 36 37 38 39 40 41 42 43 44 45 46 47 48 49 50
000
ASUS43 KLOT 071008
RWRIL

ILLINOIS REGIONAL WEATHER ROUNDUP
NATIONAL WEATHER SERVICE CHICAGO/ROMEOVILLE IL
400 AM CST WED DEC 07 2016

NOTE: "FAIR" INDICATES FEW OR NO CLOUDS BELOW 12,000 FEET WITH NO
SIGNIFICANT WEATHER AND/OR OBSTRUCTIONS TO VISIBILITY.

* THESE STATIONS ARE NOT UNDER NWS QUALITY CONTROL. THEY ALSO MAY NOT
  REPORT WEATHER SUCH AS PRECIPITATION OR FOG.

ILZ001-002-007-009-015-016-024-071100-
NORTHWEST ILLINOIS

CITY           SKY/WX    TMP DP  RH WIND       PRES   REMARKS
MOLINE         PTCLDY    26  15  63 W16       30.10R WCI  14
STERLING*      PTCLDY    25  18  74 W18G28    30.07R WCI  11
SAVANNA*       PTCLDY    23  15  71 W15       30.09R WCI  10
$$

ILZ003-004-008-010-011-017-018-071100-
NORTH CENTRAL ILLINOIS

CITY           SKY/WX    TMP DP  RH WIND       PRES   REMARKS
ROCKFORD       PTCLDY    24  16  71 W14       30.04R WCI  12
FREEPORT*      CLEAR     22  15  76 W18G25    30.04R WCI   7
ROCHELLE*      PTCLDY    23  18  81 W12       30.05R WCI  12
DE KALB*       PTCLDY    24  18  77 W15       30.03R WCI  11
$$

ILZ005-006-012>014-019>023-071100-
NORTHEAST ILLINOIS

CITY           SKY/WX    TMP DP  RH WIND       PRES   REMARKS
CHICAGO-OHARE  MOCLDY    25  17  72 W14       30.01R WCI  13
CHICAGO-MIDWAY PTCLDY    27  16  63 W14       30.03R WCI  16
AURORA         CLEAR     26  18  71 W15       30.04R WCI  14
LANSING*       CLEAR     27  20  76 W15       30.04S WCI  15
JOLIET*        PTCLDY    28  20  70 W9        30.05S WCI  19
WAUKEGAN       CLEAR     24  17  74 W8        29.97R WCI  15
DUPAGE AIRPORT CLEAR     25  16  68 W16       30.02R WCI  12
KANKAKEE*      CLOUDY    28  21  76 W9        30.07S WCI  19
WHEELING       CLEAR     25  16  68 W15       30.02R WCI  13
MORRIS*        PTCLDY    27  20  75 W14       30.05R WCI  16
ROMEOVILLE*    PTCLDY    26  22  85 W13G20    30.04R WCI  15
NORTHERLY ISL    N/A     28  18  66 W9          N/A  WCI  19
$$

LMZ740>746-071100-
SOUTHERN LAKE MICHIGAN

STATION/POSITION SKY/WX   TEMP    WIND        PRES    VSBY  WAVE
                          AIR SEA DIR/SP/G                  HT/PER
                          (F)     (DEG/KT/KT) (MB)    (MI)  (FT/S)
HARRISON CRIB              29     260/ 20/ 24   N/A
BURNHAM HARBOR             28     270/ 14/ 14   N/A
CALUMET HARBOR             27     240/  8/ 14 1016.2R
BURNS HARBOR               31     250/ 19/ 25 1016.9S
MICHIGAN CITY              31     230/ 24/ 27   N/A
$$

ILZ025>027-034>036-040-047-049-050-058-095>099-071100-
WEST-CENTRAL ILLINOIS

CITY           SKY/WX    TMP DP  RH WIND       PRES   REMARKS
QUINCY         CLOUDY    29  16  58 NW10      30.16R WCI  20
GALESBURG*     PTCLDY    26  18  71 W14       30.11S WCI  15
MACOMB*        CLOUDY    28  19  69 NW13      30.16R WCI  17
JACKSONVILLE*  MOCLDY    29  21  73 W8        30.15R WCI  21
PITTSFIELD*    PTCLDY    30  18  61 W7        30.18R WCI  23
$$

ILZ028>032-037-038-041>044-048-051>054-059>061-071100-
CENTRAL ILLINOIS

CITY           SKY/WX    TMP DP  RH WIND       PRES   REMARKS
PONTIAC        PTCLDY    29  23  77 W13       30.09R WCI  19
BLOOMINGTON    PTCLDY    27  18  69 NW13      30.08R WCI  16
DECATUR        CLEAR     30  18  60 NW8       30.12R WCI  22
PEORIA         PTCLDY    28  17  63 NW12      30.11R WCI  18
LACON*         PTCLDY    27  18  67 W12G20    30.10R WCI  17
LINCOLN*       PTCLDY    29  20  68 W5        30.11S WCI  24
SPRINGFIELD    CLOUDY    31  22  69 W8        30.14R WCI  23
TAYLORVILLE    PTCLDY    30  21  69 W5        30.13R WCI  25
$$

ILZ033-039-045-046-055>057-062-063-071100-
EAST-CENTRAL ILLINOIS

CITY           SKY/WX    TMP DP  RH WIND       PRES   REMARKS
CHAMPAIGN      CLOUDY    28  21  75 W8        30.09R WCI  20
RANTOUL*       CLOUDY    31  25  79 NW10      30.08R WCI  22
MATTOON        PTCLDY    26  20  77 NW7       30.11R WCI  18
PARIS*         CLOUDY    28  25  86 W3        30.11R
$$

ILZ079-100>102-071100-
SOUTHWEST ILLINOIS

CITY           SKY/WX    TMP DP  RH WIND       PRES   REMARKS
ALTON          PTCLDY    28  21  74 W6        30.17R WCI  22
BELLEVILLE     PTCLDY    30  19  65 NW6       30.17R WCI  24
CAHOKIA*       PTCLDY    32  18  56 NW8       30.19R WCI  25
SPARTA*        PTCLDY    30  22  73 CALM      30.18R
$$

ILZ064>066-069>071-074>076-080>082-084>086-088>090-092>094-071100-
SOUTH-CENTRAL ILLINOIS

CITY           SKY/WX    TMP DP  RH WIND       PRES   REMARKS
CARBONDALE     MOCLDY    32  25  75 CALM      30.18R
CAIRO*         MOCLDY    34  27  74 N6        30.17R WCI  29
EFFINGHAM*     CLOUDY    32  24  72 W6        30.16R WCI  26
MARION         CLOUDY    34  25  69 CALM      30.18R
CENTRALIA*     PTCLDY    31  24  76 CALM      30.15R
SALEM*         PTCLDY    32  23  69 NW3       30.15R
METROPOLIS*    CLOUDY    34  29  83 CALM      30.16F
$$

ILZ067-068-072-073-078-083-087-091-071100-
SOUTHEAST ILLINOIS

CITY           SKY/WX    TMP DP  RH WIND       PRES   REMARKS
LAWRENCEVILLE  PTCLDY    31  24  75 CALM      30.13F
FLORA*         PTCLDY    32  24  71 CALM      30.15R
FAIRFIELD*     MOCLDY    29  27  91 CALM      30.15R
HARRISBURG*    CLOUDY    32  28  86 CALM      30.18R
ROBINSON*      PTCLDY    30  23  73 N3        30.13F
CARMI*         CLOUDY    32  29  86 CALM      30.15R
$$

ABBREVIATIONS USED IN REMARKS
   TC - TEMPERATURE IN CELSIUS
  WCI - WIND CHILL INDEX
   HX - HEAT INDEX
  VSB - VISIBILITY
$$





USA.gov is the U.S. government's official web portal to all federal, state and local government web resources and services.